TIME,DELAY(SENSOR),PRES,T(CTD),SAL,OXYGEN,RAWTEMP,T(OPTODE),TCPHASE,FLUOR,BETA(BETA700),BETA(BETA412),BETA(BETA440),CDOM,C(CSC),ED(ED411.90),ED(ED443.80),ED(ED489.40),ED(ED554.70),LU(LU412.20),LU(LU443.80),LU(LU489.40),LU(LU555.00),COMP,TILTX,TILTX(TILTY),CHECK
1380380723,5808,495.8599853515625000,17.6889991760253900,36.4776000976562500,208.8578948974609400,165.3647003173828000,17.6928901672363280,32.2242889404296900,153,4130,48,51,46,8320,2146958939,2147512256,2147274578,2147456027,2147079881,2146958985,2147658331,2147127689,3465,-1,8,58536
1380380838,5808,484.7200012207031000,17.8155994415283200,36.4950981140136700,210.3934936523437500,161.3191986083984400,17.8150100708007800,32.0838203430175800,154,4130,48,52,47,8318,2146959414,2147513133,2147272694,2147451830,2147083867,2146953645,2147655798,2147129371,2607,-1,7,60033
1380380953,5806,473.5799865722656000,17.8785991668701170,36.5066986083984400,210.7395935058593800,158.8986968994140600,17.8880901336669920,32.0313110351562500,153,4130,48,52,46,8318,2146962057,2147512448,2147272118,2147451492,2147077924,2146955712,2147656192,2147129307,2439,-1,8,34354
1380381058,5804,463.4500122070312500,17.9801998138427730,36.5292015075683600,211.7364044189453000,156.0771942138672000,17.9732799530029300,31.9382495880126950,154,4130,48,52,45,8320,2146959881,2147514422,2147274468,2147450724,2147080621,2146962541,2147656164,2147129892,1979,-1,8,44358
1380381173,5805,452.2999877929687500,18.0160999298095700,36.5365982055664060,212.7875061035156200,154.6475067138672000,18.0164604187011720,31.8613700866699220,155,4130,48,51,47,8319,2146958134,2147514678,2147269293,2147453531,2147074651,2146955830,2147654400,2147130057,1205,-2,8,15686
1380381288,5805,441.3099975585937500,18.0699996948242200,36.5420989990234400,213.2236938476562500,152.9611053466797000,18.0673904418945300,31.8144092559814450,153,4130,48,51,46,8323,2146957449,2147515227,2147269869,2147449636,2147069184,2146952722,2147654793,2147128987,1287,-1,8,14411
1380381406,5802,430.2399902343750000,18.1184997558593750,36.5474014282226560,213.9461059570312500,151.4257965087890600,18.1137695312500000,31.7547893524169920,153,4130,48,52,47,8322,2146958912,2147515227,2147268196,2147449728,2147082258,2146959853,2147651437,2147132717,3291,-1,8,29870
1380381521,5807,419.6400146484375000,18.1608009338378900,36.5495986938476560,214.5440979003906200,150.0388946533203000,18.1556606292724600,31.7035999298095700,153,4130,48,51,46,8323,2146960585,2147516352,2147269357,2147447515,2147075309,2146956534,2147649984,2147128118,2641,-1,8,62023
1380381650,5804,408.1000061035156000,18.2040996551513670,36.5541000366210940,214.7292022705078000,148.5140075683593800,18.2017307281494140,31.6727790832519530,153,4130,47,51,46,8321,2146957513,2147514560,2147271798,2147446208,2147078281,2146953362,2147654253,2147128996,1300,-1,8,5533
1380381777,5805,397.2600097656250000,18.2597007751464840,36.5579986572265600,215.0543975830078000,146.7505950927734400,18.2550106048584000,31.6316890716552730,153,4130,47,51,46,8322,2146957860,2147513362,2147268690,2147449206,2147073883,2146962285,2147653778,2147129947,3411,-1,8,39073
1380381904,5810,386.7999877929687500,18.3075008392334000,36.5526008605957000,218.4172973632812500,145.1972961425781200,18.3019504547119140,31.4325199127197270,152,4130,49,50,47,8327,2146960210,2147509622,2147268864,2147450176,2147074048,2146958994,2147655076,2147129426,2661,-1,8,24093
1380382046,5806,375.2999877929687500,18.3272991180419920,36.5449981689453100,224.8213043212890600,144.4429931640625000,18.3247509002685550,31.0918998718261720,154,4130,48,51,47,8326,2146959460,2147514422,2147268845,2147445632,2147076416,2146953161,2147651456,2147127588,1226,-1,8,57771
1380382185,5805,364.2000122070312500,18.3722000122070300,36.5516014099121100,228.3175048828125000,142.9295959472656200,18.3704891204834000,30.8962001800537100,153,4130,47,52,46,8326,2146957558,2147515264,2147270985,2147445723,2147081152,2146955145,2147651712,2147128868,3487,-1,8,41801
1380382314,5804,353.9299926757812500,18.4041004180908200,36.5547981262207000,230.6260070800781200,141.9591979980468800,18.3998203277587900,30.7691993713378900,154,4130,47,51,46,8327,2146958006,2147512557,2147271725,2147447040,2147075163,2146958646,2147654016,2147128173,2523,-1,8,26105
1380382453,5809,342.7999877929687500,18.4293994903564450,36.5556983947753900,231.0623931884765600,141.1515960693359400,18.4242305755615230,30.7368106842041000,153,4130,48,51,46,8325,2146960164,2147515017,2147269741,2147445979,2147077494,2146963392,2147653750,2147128722,1685,-1,8,33429
1380382594,5805,331.3999938964844000,18.4748001098632800,36.5612983703613300,230.3842010498047000,139.6161041259765600,18.4706497192382800,30.7498607635498050,153,4130,47,51,46,8324,2146961389,2147515410,2147268086,2147444571,2147078354,2146961938,2147648612,2147127908,754,-1,8,1697
1380382733,5805,320.2399902343750000,18.4911994934082030,36.5625991821289060,229.5661926269531200,139.0003967285156200,18.4892692565917970,30.7818508148193360,154,4130,48,51,46,8326,2146958299,2147514285,2147269677,2147443739,2147075200,2146961974,2147654994,2147130285,3130,-1,8,49635
1380382874,5808,309.0700073242187500,18.5142002105712900,36.5643005371093750,228.8515014648437500,138.3688964843750000,18.5083599090576170,30.8086204528808600,153,4130,47,52,46,8328,2146960649,2147516224,2147267629,2147446354,2147080502,2146961106,2147655433,2147132205,2678,-1,8,5351
1380383013,5805,298.2500000000000000,18.5349998474121100,36.5616989135742200,228.4273986816406200,137.6473999023437500,18.5301704406738280,30.8199596405029300,153,4130,48,51,48,8327,2146957238,2147517851,2147268882,2147448329,2147070710,2146959661,2147653714,2147130395,2378,-1,8,18447
1380383152,5803,287.7300109863281000,18.5923004150390620,36.5665016174316400,225.8195037841797000,135.7660064697265600,18.5870609283447270,30.9251403808593750,153,4130,48,51,46,8328,2146961216,2147514642,2147268379,2147445558,2147082304,2146961929,2147656109,2147129545,1518,-1,8,1515
1380383284,5807,276.6199951171875000,18.6429996490478500,36.5699996948242200,223.9248046875000000,134.0724029541015600,18.6382808685302730,30.9984703063964840,152,4130,48,52,47,8328,2146958098,2147512713,2147268315,2147444434,2147078546,2146962185,2147660269,2147130212,368,-1,8,30948
1380383408,5804,264.4100036621094000,18.6954994201660160,36.5691986083984400,224.0211944580078000,132.3005065917968800,18.6918792724609380,30.9697399139404300,152,4130,48,52,47,8327,2146961106,2147515456,2147270025,2147447506,2147073737,2146966345,2147657938,2147133558,2204,-2,8,47214
1380383525,5805,252.8899993896484400,18.7523002624511720,36.5625991821289060,225.9682006835937500,130.2286071777343800,18.7545604705810550,30.8436698913574220,153,4130,48,51,46,8324,2146959094,2147513545,2147270509,2147446400,2147080128,2146962368,2147665700,2147131318,637,-1,8,41115
1380383640,5806,241.6699981689453000,18.8082008361816400,36.5668983459472660,228.4259948730468800,128.4691009521484400,18.8078002929687500,30.6977500915527340,153,4130,47,51,46,8325,2146959076,2147516315,2147271067,2147445632,2147076790,2146967021,2147669330,2147129444,2626,-1,8,26487
1380383755,5805,230.4799957275390600,18.8862991333007800,36.5768013000488300,228.9956970214843800,125.8823013305664000,18.8860797882080080,30.6352806091308600,152,4130,47,52,46,8327,2146964105,2147513051,2147267017,2147444169,2147077010,2146968182,2147675245,2147130313,1574,-1,8,25230
1380383872,5808,219.1300048828125000,19.0067005157470700,36.5861015319824200,228.3381042480468800,121.4876022338867200,19.0191192626953120,30.6095008850097660,152,4130,48,51,45,8323,2146961883,2147514130,2147268288,2147443346,2147078582,2146972141,2147687506,2147132425,587,-1,8,33188
1380383987,5806,208.0299987792968800,19.1879005432128900,36.5922012329101560,227.0767974853515600,116.0659027099609400,19.1833095550537100,30.6002693176269530,151,4130,48,52,47,8323,2146960402,2147512768,2147273188,2147443766,2147082605,2146976667,2147698377,2147131355,3109,-2,8,14094
1380384102,5809,196.8699951171875000,19.3518009185791000,36.6026992797851560,225.1045989990234400,110.5221023559570300,19.3512897491455080,30.6254005432128900,152,4130,48,52,47,8322,2146959360,2147513609,2147267355,2147442386,2147087506,2146989376,2147722514,2147134893,1894,-1,8,29918
1380384184,5806,189.2400054931640600,19.4484996795654300,36.6041984558105500,224.6080932617187500,107.4395980834961000,19.4447307586669920,30.6094398498535160,152,4130,47,52,46,8323,2146960886,2147513865,2147268781,2147443483,2147088073,2147001261,2147738048,2147134784,1135,-1,8,3670
1380384239,5805,184.4400024414062500,19.5352001190185550,36.6116981506347660,224.5050964355468800,104.6216964721679700,19.5301799774169920,30.5775299072265620,152,4130,48,51,46,8323,2146963547,2147515995,2147270043,2147444562,2147087579,2147015286,2147755702,2147137252,933,-1,8,41098
1380384294,5807,179.7100067138672000,19.6056003570556640,36.6090011596679700,224.4915008544922000,102.1038970947265600,19.6065502166748050,30.5449104309082030,150,4130,48,52,48,8322,2146958966,2147514532,2147269522,2147444635,2147089700,2147024292,2147774738,2147139008,523,-1,8,30331
1380384349,5807,175.0899963378906200,19.6632003784179700,36.6110000610351560,224.9062042236328000,99.9817962646484400,19.6709308624267580,30.4962100982666000,152,4130,48,51,46,8317,2146960384,2147514048,2147271222,2147442806,2147093522,2147037330,2147793718,2147137828,544,-1,8,27989
1380384404,5805,170.5899963378906200,19.7427005767822270,36.6141014099121100,225.5966033935547000,97.8829727172851600,19.7346191406250000,30.4340705871582030,152,4130,48,51,47,8315,2146961865,2147518848,2147269440,2147441005,2147096283,2147052580,2147825874,2147142125,769,-1,8,51364
1380384492,5806,164.2299957275390600,19.8868007659912100,36.6153984069824200,226.2698059082031200,93.1121063232421900,19.8794498443603500,30.3377208709716800,151,4130,48,51,47,8312,2146961234,2147515465,2147273920,2147437714,2147099766,2147080173,2147866852,2147143442,1049,-2,8,12261
1380384559,5806,160.4199981689453000,19.9750995635986330,36.6152992248535160,226.7541961669922000,90.0637435913086000,19.9720191955566400,30.2740097045898440,152,4130,48,51,46,8313,2146960182,2147517677,2147274038,2147441042,2147106852,2147097974,2147898148,2147145188,745,-2,8,58624
1380384638,5805,156.3099975585937500,20.0669994354248050,36.6207008361816400,226.8744964599609400,87.0141830444336000,20.0646705627441400,30.2281608581542970,151,4130,48,52,46,8311,2146961709,2147517997,2147274880,2147441398,2147106697,2147105819,2147915565,2147145682,3370,-1,8,38573
1380384717,5804,152.3999938964843800,20.1905002593994140,36.6217994689941400,226.6585998535156200,83.2334976196289000,20.1795806884765620,30.1893806457519530,151,4130,47,52,47,8309,2146963949,2147523090,2147274212,2147439634,2147115620,2147120822,2147935396,2147148571,3177,-2,8,16183
1380384799,5804,148.3800048828125000,20.2801990509033200,36.6248016357421900,227.3166046142578000,79.9356994628906200,20.2798500061035160,30.1140003204345700,151,4130,47,52,46,8304,2146962688,2147518381,2147276068,2147438125,2147120694,2147142692,2147960813,2147149330,2826,-1,9,20137
1380384878,5807,144.4600067138672000,20.4146003723144530,36.6300010681152340,226.0906066894531200,75.9245910644531200,20.4018707275390620,30.1222190856933600,152,4130,47,52,47,8303,2146960585,2147517193,2147280566,2147438793,2147128009,2147169965,2148004946,2147155273,2752,-1,8,18883
1380384957,5805,140.5399932861328000,20.5018005371093750,36.6296005249023440,225.4503021240234400,72.7624206542968800,20.4981002807617200,30.1125698089599600,151,4130,47,51,46,8301,2146960045,2147521892,2147277220,2147437211,2147143122,2147209325,2148062555,2147157586,3184,-1,8,15527
1380385036,5803,136.8000030517578000,20.6277999877929700,36.6305999755859400,225.3153076171875000,68.8029403686523400,20.6186599731445300,30.0678501129150400,152,4130,48,52,45,8300,2146963163,2147522678,2147278180,2147436333,2147157037,2147245888,2148123931,2147162102,3150,-2,8,10785
1380385130,5805,132.8600006103515600,20.7367000579834000,36.6296997070312500,225.5169982910156200,65.2254486083984400,20.7276401519775400,30.0113296508789060,152,4130,47,51,48,8298,2146961298,2147523090,2147280969,2147440320,2147178285,2147298971,2148193435,2147165750,2843,-1,8,27891
1380385233,5809,128.8600006103515600,20.8423995971679700,36.6250000000000000,227.9449005126953000,61.8158302307128900,20.8315505981445300,29.8481197357177730,151,4130,48,51,46,8302,2146965321,2147522578,2147286537,2147434541,2147197604,2147343259,2148249024,2147171584,3581,-2,8,7979
1380385348,5807,125.2399978637695300,21.0032997131347660,36.6282997131347660,232.3988952636718800,56.7449302673339840,20.9861907958984380,29.5683708190917970,152,4130,48,51,46,8302,2146962377,2147526537,2147282578,2147434916,2147212571,2147385508,2148297974,2147175945,3308,-1,9,58655
1380385468,5804,120.9300003051757800,21.1173000335693360,36.6257019042968750,234.0384063720703000,52.3146591186523440,21.1213798522949220,29.4338397979736330,151,4130,48,52,46,8299,2146966683,2147529225,2147291382,2147437586,2147276233,2147526134,2148510153,2147194934,3293,-1,8,19800
1380385547,5810,117.6800003051757800,21.3017997741699220,36.6212997436523440,236.6766052246093800,46.7205505371093750,21.2922191619873050,29.2391204833984380,151,4130,48,51,47,8298,2146968374,2147532132,2147294921,2147435629,2147335844,2147659437,2148690450,2147210697,3493,-1,9,11401
1380385650,5804,114.2500000000000000,21.5944004058837900,36.6137008666992200,240.2740936279297000,37.5192413330078100,21.5735092163085940,28.9569301605224600,152,4130,47,51,46,8295,2146967762,2147538349,2147309933,2147435291,2147424859,2147863872,2148971693,2147231296,2873,-2,8,63250
1380385774,5802,109.3000030517578100,21.9237995147705080,36.6155014038085940,244.5650024414062500,27.3397693634033200,21.8851890563964840,28.6357707977294920,150,4130,48,52,46,8295,2146976484,2147547209,2147320310,2147434249,2147566948,2148133677,2149330944,2147262756,1572,-2,9,10748
1380385853,5808,105.7699966430664000,22.0324001312255860,36.6157989501953100,246.5162963867187500,23.1070804595947270,22.0149497985839840,28.4965400695800780,151,4130,49,53,46,8295,2146981760,2147557586,2147340242,2147433956,2147767506,2148538779,2149879808,2147308818,889,-1,9,17557
1380385956,5808,101.8799972534179700,22.2369995117187500,36.6074981689453100,249.3968048095703000,16.6514396667480470,22.2130203247070300,28.2904396057128900,151,4130,48,51,46,8290,2146986139,2147565970,2147347200,2147432612,2147903241,2148717677,2150037238,2147331849,396,-1,8,58400
1380386050,5807,99.4100036621093800,22.2999000549316400,36.6043014526367200,251.5520935058593800,14.2180204391479500,22.2877407073974600,28.1675090789794920,151,4130,47,50,46,8284,2146987803,2147571419,2147349476,2147434212,2147974802,2148780882,2150061924,2147336009,3285,-2,9,24529
1380386105,5810,98.3199996948242200,22.4034004211425780,36.6026000976562500,252.3215026855468800,11.1069898605346680,22.3833103179931640,28.0958595275878900,151,4130,48,52,47,8289,2146994834,2147568365,2147347958,2147431853,2148007186,2148823762,2150106998,2147341622,45,-2,8,49353
1380386360,5804,96.0800018310546900,22.6257991790771500,36.5937004089355500,259.4888000488281000,3.0168139934539795,22.6320991516113280,27.6961097717285160,151,4130,48,51,46,8285,2147008036,2147591524,2147383186,2147434002,2148425462,2149576539,2151085997,2147434944,3100,-2,8,11252
1380386415,5806,94.0400009155273400,22.8470001220703120,36.5802993774414060,261.0978088378906000,-3.1121129989624023,22.8208198547363280,27.5549507141113280,151,4130,48,52,46,8280,2147013302,2147603419,2147393828,2147433170,2148635008,2149894829,2151450176,2147471707,2504,-2,9,43719
1380386482,5804,92.0100021362304700,22.9326992034912100,36.5808982849121100,263.4645080566406000,-5.9750142097473145,22.9090404510498050,27.4240303039550780,150,4130,48,52,47,8282,2147026971,2147623323,2147424045,2147432265,2149033837,2150569142,2152278098,2147550034,2038,-2,8,4606
1380386561,5807,90.3899993896484400,22.9901008605957030,36.5744018554687500,265.3064880371094000,-8.0528049468994140,22.9731101989746100,27.3247108459472660,151,4130,48,52,47,8279,2147023186,2147613412,2147410523,2147431195,2148929426,2150289874,2151815469,2147512054,1899,-2,8,49004
1380386661,5803,88.2200012207031200,23.2663993835449220,36.5702018737793000,267.0144042968750000,-15.5615501403808600,23.2048301696777340,27.1654300689697270,150,4130,49,52,47,8281,2147039716,2147631113,2147429568,2147435291,2149264539,2150753773,2152301449,2147565001,1437,-1,8,63885
1380386740,5807,86.2799987792968800,23.3290996551513670,36.5634002685546900,272.6058044433594000,-18.6273403167724600,23.2995395660400400,26.9097900390625000,150,4130,48,51,47,8279,2147060809,2147666761,2147473316,2147435392,2149927433,2151797760,2153504137,2147684982,1821,-1,9,52644
1380386819,5809,84.2300033569336000,23.4494991302490230,36.5554008483886700,278.8178100585937500,-22.5538692474365230,23.4209308624267580,26.6259193420410160,150,4130,47,52,46,8279,2147088228,2147694436,2147506212,2147437010,2150546560,2152710582,2154490203,2147789083,1975,-1,9,29385
1380386898,5803,82.3099975585937500,23.6084003448486330,36.5550994873046900,286.0470886230469000,-27.6527099609375000,23.5786991119384770,26.2974205017089840,150,4130,47,51,45,8276,2147100736,2147710820,2147526793,2147434569,2151001554,2153280768,2155012260,2147851108,2260,-1,9,22343
1380386986,5803,80.1699981689453100,23.6916007995605470,36.5517997741699200,292.4071960449219000,-31.1255607604980470,23.6862602233886720,26.0275001525878900,151,4130,47,52,46,8276,2147106861,2147713819,2147517321,2147434395,2151153856,2153236891,2154699172,2147828763,2899,-1,9,3164
1380387053,5809,78.0100021362304700,23.9267997741699220,36.5275001525878900,295.2983093261719000,-37.8778190612793000,23.8956108093261720,25.8455600738525400,149,4130,46,53,46,8274,2147126582,2147731520,2147539172,2147436461,2151629001,2153746029,2155085138,2147878948,3540,-1,8,64723
1380387132,5805,76.5400009155273400,24.0583000183105470,36.5107002258300800,305.4718933105469000,-42.1304702758789060,24.0276107788085940,25.4461002349853500,149,4130,49,52,46,8271,2147135396,2147739730,2147544365,2147435922,2151862912,2153963163,2155205888,2147893952,288,-1,9,52982
1380387327,5804,73.9700012207031200,24.3292999267578120,36.4892997741699200,302.6485900878906000,-51.1948699951171900,24.3093891143798830,25.4353904724121100,150,4130,47,52,46,8267,2147141266,2147733586,2147527250,2147429961,2151894628,2153749915,2154709805,2147849901,1146,-1,9,62854
1380387382,5804,72.1999969482421900,24.4713993072509770,36.4898986816406250,299.4968872070312500,-55.5725288391113300,24.4456806182861330,25.4917106628417970,150,4130,48,50,45,8272,2147157174,2147750784,2147543725,2147430162,2152401691,2154319588,2155177545,2147901229,1338,-1,9,16248
1380387461,5807,70.2600021362304700,24.7273006439209000,36.5075988769531250,302.4330139160156000,-62.7119789123535160,24.6682395935058600,25.3078594207763670,148,4130,48,51,46,8272,2147184082,2147780132,2147566308,2147431094,2153093988,2155132480,2155839131,2147979611,1724,-1,9,34606
1380387632,5805,68.1500015258789000,24.9148998260498050,36.4949989318847660,316.7481994628906000,-70.8372726440429700,24.9219894409179700,24.7413005828857420,149,4130,48,51,46,8260,2147239323,2147833545,2147617984,2147436754,2154531328,2156768027,2157158180,2148123529,2720,-1,9,63155
1380387711,5806,66.2699966430664000,25.1354999542236330,36.4658012390136700,318.1950073242187500,-76.5487136840820300,25.1006507873535160,24.6290397644042970,148,4130,47,52,47,8270,2147283721,2147880054,2147657499,2147434020,2155663524,2158052242,2158202093,2148247680,2130,-1,9,64359
1380387838,5804,64.7900009155273400,25.2872009277343750,36.4525985717773440,335.7738952636719000,-82.1062316894531200,25.2747402191162100,24.0215091705322270,147,4130,47,51,47,8263,2147325028,2147921435,2147696018,2147438656,2156665801,2159240941,2159232301,2148360886,2045,-2,9,26942
1380387986,5806,62.3199996948242200,25.4554004669189450,36.4412994384765600,341.9081115722656000,-87.1852035522461000,25.4340400695800780,23.7816009521484380,148,4130,47,52,47,8259,2147437641,2148035565,2147804608,2147442953,2159656685,2162648100,2162069129,2148688557,1530,-1,8,15706
1380388041,5802,60.9700012207031250,25.5648994445800780,36.4353981018066400,343.6416931152344000,-90.9586029052734400,25.5525302886962900,23.6880302429199220,148,4130,48,52,46,8266,2147494262,2148092836,2147859465,2147448749,2161208100,2164364434,2163457289,2148851629,1419,-2,8,46944
1380388120,5806,59.5400009155273440,25.6706008911132800,36.4283981323242200,355.2644958496094000,-94.2896270751953100,25.6572208404541000,23.3173694610595700,147,4130,49,52,47,8266,2147562614,2148158107,2147920027,2147454098,2162920676,2166234642,2164948470,2149038747,735,-2,8,35126
1380388244,5809,56.9300003051757800,25.9484996795654300,36.3880004882812500,372.7383117675781000,-103.0326004028320300,25.9324302673339840,22.7411499023437500,148,4130,48,51,45,8262,2147694921,2148277760,2148022171,2147462939,2166247168,2169654912,2167503588,2149375670,808,-2,9,24501
1380388299,5803,55.2099990844726560,26.2189998626709000,36.3036994934082000,375.4750976562500000,-111.1932983398437500,26.1898899078369140,22.5775508880615230,147,4130,48,51,46,8257,2147794889,2148378898,2148105481,2147468598,2168747282,2172400512,2169742052,2149657572,1160,-1,9,23529
1380388563,5807,53.8600006103515600,26.3724002838134770,36.2416000366210940,413.2485046386719000,-116.3179016113281200,26.3518390655517580,21.5754604339599600,148,4130,49,51,45,8268,2147935040,2148511177,2148224950,2147473014,2172207424,2176268681,2172925997,2150056100,1560,-2,9,17904
1380388889,5803,51.9000015258789060,26.4902992248535160,36.2117004394531250,465.4840087890625000,-120.5933990478515600,26.4871406555175780,20.3640003204345700,147,4130,48,52,46,8269,2147959158,2148490203,2148159780,2147468992,2172631049,2175570660,2171115081,2149858258,2944,-2,9,23440
1380388949,5806,49.8699989318847660,26.5156993865966800,36.2130012512207000,441.4234924316406000,-122.0300979614257800,26.5326404571533200,20.8666706085205080,146,4130,48,52,46,8270,2148052836,2148562569,2148205449,2147474669,2175004004,2177648987,2172347602,2150053120,3425,-2,9,561
1380389009,5809,47.6500015258789060,26.5706996917724600,36.2107009887695300,427.4306945800781000,-122.7598037719726600,26.5557594299316400,21.1739292144775400,145,4130,48,52,46,8273,2148179264,2148671478,2148277092,2147479506,2178171556,2180595794,2174251739,2150322788,2638,-2,9,48027
1380389055,5807,45.7900009155273440,26.5900993347167970,36.2060012817382800,421.7291870117187500,-123.8594970703125000,26.5905990600585940,21.2934398651123050,144,4130,48,51,45,8272,2148294052,2148768146,2148345764,2147488384,2180985142,2183273947,2176025033,2150591680,2495,-1,9,23347
1380389114,5806,43.6100006103515600,26.6004009246826170,36.2038993835449200,413.1370849609375000,-124.2864990234375000,26.6041297912597660,21.4905891418457030,145,4130,47,51,46,8278,2148447981,2148896694,2148444077,2147497810,2184844726,2186938322,2178501184,2150971986,2413,-2,9,42327
1380389180,5805,41.3300018310546900,26.6147994995117200,36.1982994079589840,418.3446044921875000,-124.7373962402343800,26.6184291839599600,21.3627891540527340,144,4130,47,52,46,8278,2148669476,2149087012,2148584978,2147510930,2190813805,2192663049,2182312036,2151557302,2854,-1,9,28177
1380389213,5810,39.7000007629394500,26.6182003021240230,36.1957015991210940,415.2838134765625000,-124.8504028320312500,26.6220092773437500,21.4335899353027340,144,4130,47,52,46,8278,2148825801,2149216822,2148681974,2147526098,2195103579,2196746221,2185061275,2152009956,2720,-2,9,63196
1380389259,5805,37.2700004577636700,26.6194000244140620,36.1949005126953100,414.1122131347656000,-124.9259033203125000,26.6243991851806640,21.4604301452636720,145,4130,48,51,46,8278,2149088786,2149439433,2148847058,2147548361,2201967616,2203299044,2189464374,2152739776,2790,-1,9,29090